Airfield :
LOGIN :

Register | Disclaimer

   EN    FR    IT 

 










Legend :    VFR   Marginal VFR   IFR   Intensive IFR   Very Intensive IFR
Visi :
Ceiling :
>= 8 km
>= 3000ft
5 to 8 km
1000 to 3000 ft
1500m to 5 km
500 to 1000 ft
800 to 1500m
200 to 500 ft
< 800m
< 200 ft
Symbols :   Thunderstorms  Fog  Heavy snow  Heavy precipitations  Wind > 20 kt
SIGMETs :     Misc.  Thunderstorms  Icing  Turbulence  Mountain Waves  Volcanic Ashes







- Airport Elevation : 142 ft
- IATA code : FLR


LIRQ - Firenze Amerigo Vespucci

CURRENT METAR :
  • 190350Z VRB02KT 9999 R05/1400D FEW080 M02/M02 Q1025

EXPIRED METARs :
  • 190320Z 30002KT CAVOK M01/M02 Q1025
  • 190250Z VRB01KT CAVOK M01/M01 Q1025
  • 190220Z 32001KT CAVOK M01/M01 Q1026
  • 190150Z VRB01KT CAVOK M02/M02 Q1026
  • 190120Z 07001KT CAVOK M02/M03 Q1026

TAF TAF LIRQ
Valid from the 19 at 00:00 until the 20 at 00:00 UTC


182300Z 1900/1924 10006KT CAVOK
TEMPO 1918/1924 RA
No reported NOTAMs for that airfield.



MET'MAP, your aeronautical weather chart ! - Copyright ORBIFLY December 2007 - Disclaimer

ORBIFLY MET'MAP TEAM :

Programming & Development : Alexandra Zaïnal
Concept & Development : Baudouin d'Aumeries
Co-Development & Prog : Marc-Olivier Méhu
Technical & hardware support : Manuel Goepfert

Contact : metmap@orbifly.com




SOURCES & CREDITS :

   NOAA